Regional Weather Roundup
Issued by NWS

Home | Current Version | Previous Version | Text Only | Print | Product List | Glossary Off
Versions: 1 2 3 4 5 6 7 8 9 10 11 12 13 14 15 16 17 18 19 20 21 22 23 24 25 26 27 28 29 30 31 32 33 34 35 36 37 38 39 40 41 42 43 44 45 46 47 48 49 50

000
ASUS45 KBOU 281007
RWRCO

WEATHER ROUNDUP FOR COLORADO
NATIONAL WEATHER SERVICE DENVER/BOULDER CO
400 AM MDT THU MAY 28 2015

NOTE: "FAIR" INDICATES FEW OR NO CLOUDS BELOW 12000 FEET WITH NO
SIGNIFICANT WEATHER AND/OR OBSTRUCTIONS TO VISIBILITY.

COZ001>005-013-030-031-281100-
...NORTHWEST COLORADO...

CITY           SKY/WX    TMP DP  RH WIND       PRES   REMARKS
CRAIG          CLOUDY    49  44  83 CALM      30.14S
HAYDEN         CLOUDY    46  39  76 CALM      30.15S
MEEKER         MOCLDY    45  42  89 S3        30.16R
MOUNT WERNER   NOT AVBL
STEAMBOAT SPGS CLOUDY    44  42  92 CALM      30.16F
WALDEN         MOCLDY    37  34  87 SE9       30.20S
$$

COZ006>008-011-281100-
...WEST CENTRAL VALLEYS...

CITY           SKY/WX    TMP DP  RH WIND       PRES   REMARKS
GRAND JUNCTION MOCLDY    52  49  89 SE8       30.10S
MONTROSE       MOCLDY    51  42  71 CALM      30.16F
EAGLE          PTCLDY    45  43  93 SE3       30.21S
RIFLE          MOCLDY    48  46  93 NE5       30.16S
DELTA          MOCLDY    53  46  76 NE7       30.16R
NUCLA          MOCLDY    46  41  81 E6        30.17S
$$

COZ017>023-064>068-281100-
...SOUTHWEST COLORADO...

CITY           SKY/WX    TMP DP  RH WIND       PRES   REMARKS
DURANGO        MOCLDY    43  37  79 CALM      30.15S
CORTEZ         CLEAR     44  38  79 E6        30.13R
PAGOSA SPRINGS MOCLDY    46  33  60 SE3       30.21R
TELLURIDE      CLOUDY    44  34  67 CALM      30.30S
WOLF CREEK PAS NOT AVBL
$$

COZ009-010-012-014-032>034-037-058>063-281100-
...CENTRAL COLORADO...

CITY           SKY/WX    TMP DP  RH WIND       PRES   REMARKS
ASPEN          PTCLDY    41  36  82 VRB3      30.22F
BUENA VISTA    MOCLDY    42  36  80 W8        30.22S
COPPER MTN     MOCLDY    34  30  86 SW7G18    30.38S HAZE    WCI  28
BERTHOUD PASS  HAZE      28  19  69 W23G30    30.37F VSB 1/4 WCI  14
COTTONWOOD PAS MOCLDY    45  32  61 CALM      30.29S
GUNNISON       CLOUDY    39  34  81 CALM      30.30S
KREMMLING      MOCLDY    43  37  81 CALM      30.21F
LEADVILLE      MOCLDY    32  29  88 N5        30.28F WCI  27
MONARCH PASS   MOCLDY    32  28  86 W28       30.49R WCI  18
SALIDA         MOCLDY    43  37  78 W5        30.27S
SUNLIGHT       PTCLDY    36  34  93 CALM      30.35F
WILKERSON PASS MOCLDY    36  28  75 SW8       30.36F
$$

COZ069>075-281100-
...SAN LUIS VALLEY/SANGRE DE CRISTO MOUNTAINS...

CITY           SKY/WX    TMP DP  RH WIND       PRES   REMARKS
ALAMOSA        MOCLDY    39  35  86 NE6       30.19F
LA VETA PASS   MOCLDY   N/A N/A N/A MISG      30.30F
SAGUACHE       MOCLDY    43  34  70 NW17      30.22S
$$

COZ035-036-038>040-281100-
...NORTHERN COLORADO FRONT RANGE...

CITY           SKY/WX    TMP DP  RH WIND       PRES   REMARKS
DENVER INTL AP FOG       55  54  96 W9        30.04F VSB 1/2
DMNS CITY PARK   N/A     52  50  92 E2        30.06R
AURORA         MOCLDY    51  49  93 W3        30.08R
FRONT RANGE AP MOCLDY    55  54  94 MISG      30.05F
ERIE MUNI ARPT PTCLDY    52  50  95 NW3       30.05R
BOULDER MUN AP CLEAR     52  45  76 W7        30.06R
CENTENNIAL     PTCLDY    50  42  74 CALM      30.08R
BROOMFIELD     PTCLDY    54  52  94 N9        30.07S
FORT COLLINS   PTCLDY    55  52  88 N6        30.06S
LONGMONT       CLEAR     56  53  89 NW5       30.06S
$$

COZ041-046-047-076>085-087-088-281100-
...PIKES PEAK/PALMER DIVIDE AND SOUTHERN FOOTHILLS...

CITY           SKY/WX    TMP DP  RH WIND       PRES   REMARKS
COLO. SPRINGS  PTCLDY    50  41  71 N6        30.10S
A. F. ACADEMY  PTCLDY    44  39  81 N5        30.11R
ELLICOTT       PTCLDY   N/A N/A N/A SE8       30.08S
FALCON         PTCLDY    46  44  90 N3        30.13S
FORT CARSON    PTCLDY    52  40  64 NW6       30.07F
LIMON          MOCLDY    49  49 100 S3        30.07R FOG
MONUMENT HILL  CLEAR     45  37  76 E5        30.13S
TRINIDAD       MOCLDY    52  43  71 W15       30.07S
$$

COZ042>045-048>051-090-091-281100-
...NORTHEAST COLORADO...

CITY           SKY/WX    TMP DP  RH WIND       PRES   REMARKS
GREELEY ARPT   CLEAR     54  52  94 N5        30.03S
AKRON          MOCLDY    51  51 100 N5        30.04R
BURLINGTON     CLOUDY    57  54  89 S17       30.03F
WRAY           MOCLDY   N/A N/A N/A CALM      30.02R
STERLING       PTCLDY    52  52 100 CALM      30.01F
HOLYOKE        MOCLDY    57  54  88 N5        30.03S
FORT MORGAN    PTCLDY    52  50  92 E5        30.03S
$$

COZ086-089-092>099-281100-
...SOUTHEAST COLORADO...

CITY           SKY/WX    TMP DP  RH WIND       PRES   REMARKS
PUEBLO         CLEAR     51  49  92 CALM      30.03R
LA JUNTA       PTCLDY    55  52  89 E6        30.02R
LAMAR          MOCLDY    58  57  97 E10       30.02S
SPRINGFIELD      N/A     58  58 100 SE12      30.06R
$$



USA.gov is the U.S. government's official web portal to all federal, state and local government web resources and services.